Waarnemingen

Advertentie
Mijn weer
Koksijde, België (6400): temperatuur & dauwpunt: 13.08.2019 23:00:00 - 19.08.2019 23:00:00 (CEST)Koksijde, België (6400): windsnelheid & windstoten: 13.08.2019 23:00:00 - 19.08.2019 23:00:00 (CEST)Koksijde, België (6400): windrichting: 13.08.2019 23:00:00 - 19.08.2019 23:00:00 (CEST)Koksijde, België (6400): luchtdruk: 13.08.2019 23:00:00 - 19.08.2019 23:00:00 (CEST)Koksijde, België (6400): zicht: 13.08.2019 23:00:00 - 19.08.2019 23:00:00 (CEST)
Datum & Tijd tt [°C] td [°C] ff [km/u] ff [kn] fx [km/u] fx [kn] dd ppp [hPa] vv [km]
19.08.2019 23:00:00 13,8 10,8 11 6 - - ZW 1019,2 11
19.08.2019 22:00:00 14,8 10,8 14 8 32 18 ZW 1019,0 11
19.08.2019 21:00:00 16,2 10,1 22 12 43 23 WZW 1018,2 13
19.08.2019 20:00:00 17,9 8,7 25 14 - - WZW 1017,8 19
19.08.2019 19:00:00 18,9 9,1 36 19 47 25 WZW 1017,7 20
19.08.2019 18:00:00 19,7 9,7 29 16 47 25 WZW 1017,3 20
19.08.2019 17:00:00 20,1 9,7 32 18 - - WZW 1017,1 20
19.08.2019 16:00:00 20,8 9,9 32 18 47 25 WZW 1016,7 20
19.08.2019 15:00:00 21,5 10,9 29 16 47 25 WZW 1016,6 20
19.08.2019 14:00:00 19,5 9,1 32 18 - - WZW 1016,2 20
19.08.2019 13:00:00 19,7 11,3 22 12 40 21 W 1015,7 20
19.08.2019 12:00:00 19,8 10,7 29 16 40 21 WZW 1015,3 20
19.08.2019 11:00:00 17,3 12,5 25 14 - - W 1015,1 15
19.08.2019 10:00:00 17,3 12,8 22 12 36 19 ZW 1014,5 13
19.08.2019 09:00:00 15,4 12,4 22 12 32 18 ZZW 1014,2 12
19.08.2019 08:00:00 13,4 11,8 14 8 - - ZZW 1014,1 10
19.08.2019 07:00:00 - - - - - - - - -
19.08.2019 06:00:00 - - - - - - - - -
19.08.2019 05:00:00 - - - - - - - - -
19.08.2019 04:00:00 - - - - - - - - -
19.08.2019 03:00:00 - - - - - - - - -
19.08.2019 02:00:00 - - - - - - - - -
19.08.2019 01:00:00 - - - - - - - - -
19.08.2019 00:00:00 - - - - - - - - -
18.08.2019 23:00:00 - - - - - - - - -
18.08.2019 22:00:00 - - - - - - - - -
18.08.2019 21:00:00 - - - - - - - - -
18.08.2019 20:00:00 - - - - - - - - -
18.08.2019 19:00:00 - - - - - - - - -
18.08.2019 18:00:00 - - - - - - - - -
18.08.2019 17:00:00 - - - - - - - - -
18.08.2019 16:00:00 - - - - - - - - -
18.08.2019 15:00:00 - - - - - - - - -
18.08.2019 14:00:00 - - - - - - - - -
18.08.2019 13:00:00 - - - - - - - - -
18.08.2019 12:00:00 - - - - - - - - -
18.08.2019 11:00:00 - - - - - - - - -
18.08.2019 10:00:00 - - - - - - - - -
18.08.2019 09:00:00 - - - - - - - - -
18.08.2019 08:00:00 - - - - - - - - -
18.08.2019 07:00:00 - - - - - - - - -
18.08.2019 06:00:00 - - - - - - - - -
18.08.2019 05:00:00 - - - - - - - - -
18.08.2019 04:00:00 - - - - - - - - -
18.08.2019 03:00:00 - - - - - - - - -
18.08.2019 02:00:00 - - - - - - - - -
18.08.2019 01:00:00 - - - - - - - - -
18.08.2019 00:00:00 - - - - - - - - -
17.08.2019 23:00:00 - - - - - - - - -
17.08.2019 22:00:00 - - - - - - - - -
17.08.2019 21:00:00 - - - - - - - - -
17.08.2019 20:00:00 - - - - - - - - -
17.08.2019 19:00:00 - - - - - - - - -
17.08.2019 18:00:00 - - - - - - - - -
17.08.2019 17:00:00 - - - - - - - - -
17.08.2019 16:00:00 - - - - - - - - -
17.08.2019 15:00:00 - - - - - - - - -
17.08.2019 14:00:00 - - - - - - - - -
17.08.2019 13:00:00 - - - - - - - - -
17.08.2019 12:00:00 - - - - - - - - -
17.08.2019 11:00:00 - - - - - - - - -
17.08.2019 10:00:00 - - - - - - - - -
17.08.2019 09:00:00 - - - - - - - - -
17.08.2019 08:00:00 - - - - - - - - -
17.08.2019 07:00:00 - - - - - - - - -
17.08.2019 06:00:00 - - - - - - - - -
17.08.2019 05:00:00 - - - - - - - - -
17.08.2019 04:00:00 - - - - - - - - -
17.08.2019 03:00:00 - - - - - - - - -
17.08.2019 02:00:00 - - - - - - - - -
17.08.2019 01:00:00 - - - - - - - - -
17.08.2019 00:00:00 - - - - - - - - -
16.08.2019 23:00:00 - - - - - - - - -
16.08.2019 22:00:00 - - - - - - - - -
16.08.2019 21:00:00 - - - - - - - - -
16.08.2019 20:00:00 - - - - - - - - -
16.08.2019 19:00:00 - - - - - - - - -
16.08.2019 18:00:00 - - - - - - - - -
16.08.2019 17:00:00 - - - - - - - - -
16.08.2019 16:00:00 - - - - - - - - -
16.08.2019 15:00:00 - - - - - - - - -
16.08.2019 14:00:00 - - - - - - - - -
16.08.2019 13:00:00 - - - - - - - - -
16.08.2019 12:00:00 - - - - - - - - -
16.08.2019 11:00:00 - - - - - - - - -
16.08.2019 10:00:00 - - - - - - - - -
16.08.2019 09:00:00 - - - - - - - - -
16.08.2019 08:00:00 - - - - - - - - -
16.08.2019 07:00:00 - - - - - - - - -
16.08.2019 06:00:00 - - - - - - - - -
16.08.2019 05:00:00 - - - - - - - - -
16.08.2019 04:00:00 - - - - - - - - -
16.08.2019 03:00:00 - - - - - - - - -
16.08.2019 02:00:00 - - - - - - - - -
16.08.2019 01:00:00 - - - - - - - - -
16.08.2019 00:00:00 - - - - - - - - -
15.08.2019 23:00:00 - - - - - - - - -
15.08.2019 22:00:00 - - - - - - - - -
15.08.2019 21:00:00 - - - - - - - - -
15.08.2019 20:00:00 - - - - - - - - -
15.08.2019 19:00:00 - - - - - - - - -
15.08.2019 18:00:00 - - - - - - - - -
15.08.2019 17:00:00 - - - - - - - - -
15.08.2019 16:00:00 - - - - - - - - -
15.08.2019 15:00:00 - - - - - - - - -
15.08.2019 14:00:00 - - - - - - - - -
15.08.2019 13:00:00 - - - - - - - - -
15.08.2019 12:00:00 - - - - - - - - -
15.08.2019 11:00:00 - - - - - - - - -
15.08.2019 10:00:00 - - - - - - - - -
15.08.2019 09:00:00 - - - - - - - - -
15.08.2019 08:00:00 - - - - - - - - -
15.08.2019 07:00:00 - - - - - - - - -
15.08.2019 06:00:00 - - - - - - - - -
15.08.2019 05:00:00 - - - - - - - - -
15.08.2019 04:00:00 - - - - - - - - -
15.08.2019 03:00:00 - - - - - - - - -
15.08.2019 02:00:00 - - - - - - - - -
15.08.2019 01:00:00 - - - - - - - - -
15.08.2019 00:00:00 - - - - - - - - -
14.08.2019 23:00:00 - - - - - - - - -
14.08.2019 22:00:00 - - - - - - - - -
14.08.2019 21:00:00 - - - - - - - - -
14.08.2019 20:00:00 - - - - - - - - -
14.08.2019 19:00:00 - - - - - - - - -
14.08.2019 18:00:00 - - - - - - - - -
14.08.2019 17:00:00 - - - - - - - - -
14.08.2019 16:00:00 16,8 13,4 22 12 25 14 ZZW 1015,6 20
14.08.2019 15:00:00 18,7 12,7 22 12 32 18 ZZW 1016,9 20
14.08.2019 14:00:00 18,7 12,0 22 12 - - ZZW 1016,4 20
14.08.2019 13:00:00 19,1 12,7 22 12 29 16 ZZW 1016,8 15
14.08.2019 12:00:00 18,8 12,5 22 12 29 16 ZZW 1016,9 15
14.08.2019 11:00:00 17,6 12,9 22 12 - - ZZW 1017,3 15
14.08.2019 10:00:00 16,8 13,3 18 10 22 12 ZZW 1017,9 15
14.08.2019 09:00:00 14,0 12,3 14 8 22 12 ZZW 1018,0 15
14.08.2019 08:00:00 11,8 10,9 14 8 - - ZZW 1018,0 8
14.08.2019 07:00:00 10,6 9,7 7 4 18 10 ZZW 1018,1 8
14.08.2019 06:00:00 - - - - - - - - -
14.08.2019 05:00:00 - - - - - - - - -
14.08.2019 04:00:00 - - - - - - - - -
14.08.2019 03:00:00 - - - - - - - - -
14.08.2019 02:00:00 - - - - - - - - -
14.08.2019 01:00:00 - - - - - - - - -
14.08.2019 00:00:00 - - - - - - - - -
13.08.2019 23:00:00 - - - - - - - - -

tt = temperatuur
td = dauwpunt
ff = windsnelheid
fx = windstoten
dd = windrichting
ppp = luchtdruk
vv = zicht

Weerstations in de omgeving